Regional Weather Roundup
Issued by NWS Newport/Morehead, NC

Current Version | Previous Version | Graphics & Text | Print | Product List | Glossary On
Versions: 1 2 3 4 5 6 7 8 9 10 11 12 13 14 15 16 17 18 19 20 21 22 23 24 25 26 27 28 29 30 31 32 33 34 35 36 37 38 39 40 41 42 43 44 45 46 47 48 49 50
000 ASUS42 KMHX 200125 RWRMHX WEATHER ROUNDUP FOR EASTERN NORTH CAROLINA NATIONAL WEATHER SERVICE NEWPORT/MOREHEAD CITY NC 900 PM EDT THU OCT 19 2017 NOTE: "FAIR" INDICATES FEW OR NO CLOUDS BELOW 12,000 FEET WITH NO SIGNIFICANT WEATHER AND/OR OBSTRUCTIONS TO VISIBILITY NCZ015>017-031-032-045>047-102-103-200200- NORTH COAST CITY SKY/WX TMP DP RH WIND PRES REMARKS EDENTON CLEAR 59 56 91 CALM 30.20S ELIZABETH CITY CLEAR 62 60 93 CALM 30.20R KITTY HAWK CLEAR 63 59 86 CALM 30.18S MANTEO CLEAR N/A N/A N/A CALM 30.20S $$ NCZ045>047-081-094-103-104-200200- CENTRAL COAST CITY SKY/WX TMP DP RH WIND PRES REMARKS FRISCO CLEAR 62 60 93 N5 30.20R $$ NCZ095-097-098-100-101-200200- SOUTHERN COAST CITY SKY/WX TMP DP RH WIND PRES REMARKS BEAUFORT CLEAR 62 59 90 CALM 30.20R CEDAR ISLAND NOT AVBL JACKSONVILLE CLEAR 62 61 96 CALM 30.20R PINEY ISLAND N/A N/A N/A N/A CALM 30.20R WILMINGTON CLEAR 63 60 90 CALM 30.20S $$ NCZ011>013-027>030-043-044-078>080-089-090>093-098-200200- COASTAL PLAIN CITY SKY/WX TMP DP RH WIND PRES REMARKS AHOSKIE CLEAR 54 54 100 CALM 30.21S CLINTON CLEAR 59 57 94 CALM 30.22S ELIZABETHTOWN NOT AVBL GOLDSBORO CLEAR 60 55 84 CALM 30.19S GREENVILLE CLEAR 59 57 94 CALM 30.21F HAVELOCK NOT AVBL KENANSVILLE CLEAR 55 54 94 CALM 30.21S KINSTON CLEAR 55 54 94 CALM 30.21S NEW BERN CLEAR 61 59 93 CALM 30.21S RICHLANDS CLEAR 58 57 97 CALM 30.21R ROCKY MOUNT CLEAR 54 54 100 CALM 30.21S WASHINGTON CLEAR 58 55 90 CALM 30.21S WHITEVILLE CLEAR 61 58 90 CALM 30.21R $$ AMZ130-135-150-152-154-156-158-170-250-252-270-ANZ085-086-088-633-658-670-200200- MARINE OBSERVATIONS STATION/POSITION TIME TEMP WIND PRES WAVE SWELL AIR SEA DIR/SP/G HT/PER HT/PER (UTC) (F) (DEG/KT/KT) (MB) (FT/S) (FT/S) CHESAPEAKE LIGHT NOT AVBL 64 E VA BEACH 0050 68 69 140/ 4/ 6 1022.8 3/ 9 3/ 9 DUCK 0100 67 69 220/ 3/ 4 1022.0 2 E DUCK 0100 70 N/A 3/ 7 OREGON INLET 0100 66 69 110/ 4/ 4 1022.3 13E OREGON INLT 0048 71 N/A 3/ 9 3/ 9 HATTERAS CG 0100 68 70 30/ 3/ 4 1022.4 DIAMOND BUOY 0050 74 81 10/ 6/ 10 1022.1 4/ 9 3/ 9 CAPE LOOKOUT 0100 71 10/ 3/ 3 1022.2 BEAUFORT LAB 0100 67 71 CALM 1022.7 30 SE NEW RVR IN 0108 74 80/ 6/ 10 1022.2 30 SE NEW RVR IN NOT AVBL 27 SE WRIGHTSVLE 0108 75 77 90/ 8/ 12 1022.4 5 SE WRIGHTSVLE 0108 74 74 90/ 6/ 10 1022.3 225 S CAPE HAT 0050 77 80 30/ 17/ 21 1019.0 6/ 8 3/ 9 41 SE CHARLESTON 0100 76 80 30/ 12/ 16 1021.5 $$

USA.gov is the U.S. government's official web portal to all federal, state and local government web resources and services.